PBO Station Position Time Series. Reference Frame : NAM14
Format Version,1.1.0
4-character ID,LMNO
Station name,Lamont
Begin Date, 1996-01-01
End Date, 2012-05-29
Release Date, 2021-02-19
Reference position, 36.6854462957 North Latitude, -97.4807383286 East Longitude, 279.72171 meters elevation,
Date, North (mm), East (mm), Vertical (mm), North Std. Deviation (mm), East Std. Deviation (mm),              Vertical Std. Deviation (mm), Quality,
1996-01-01,0.00, 0.00, 0.00, 3.30, 3.00, 13.01, repro,
1996-01-02,-2.85, 5.50, -6.82, 3.33, 2.90, 10.82, repro,
1996-01-03,-4.11, 2.17, -6.98, 3.03, 2.83, 11.99, repro,
1996-01-04,-2.63, 4.13, -4.58, 3.26, 3.09, 12.88, repro,
1996-01-05,-0.63, 3.56, -10.43, 3.23, 2.82, 12.25, repro,
1996-01-06,-1.48, 5.74, -10.77, 3.54, 3.08, 12.17, repro,
1996-01-07,-2.35, 4.37, -18.91, 3.24, 2.82, 12.47, repro,
1996-01-08,-4.59, 5.90, -11.50, 3.50, 3.30, 14.68, repro,
1996-01-09,-0.79, 1.88, -15.67, 3.23, 2.72, 11.76, repro,
1996-01-10,-2.19, 3.45, -1.72, 3.13, 2.83, 11.10, repro,
1996-01-11,-0.19, 2.60, -8.58, 2.98, 2.68, 11.48, repro,
1996-01-12,-1.31, 1.89, -10.67, 3.18, 2.88, 11.38, repro,
1996-01-13,-2.74, 3.33, -6.57, 3.30, 3.06, 12.71, repro,
1996-01-14,0.22, 2.47, -9.56, 3.23, 2.79, 12.80, repro,
1996-01-15,-2.63, 3.97, -15.64, 2.94, 2.80, 11.29, repro,
1996-01-16,-1.40, 3.05, -4.84, 3.14, 2.83, 11.92, repro,
1996-01-17,-0.42, 2.93, 5.86, 3.16, 2.96, 11.94, repro,
1996-01-18,-3.54, 3.71, -6.23, 3.18, 2.75, 12.18, repro,
1996-01-19,-2.47, 5.25, -13.08, 3.21, 2.91, 12.04, repro,
1996-01-20,-3.06, 4.25, -12.92, 3.11, 3.00, 12.74, repro,
1996-01-21,-0.01, 3.00, -16.64, 3.00, 2.74, 12.37, repro,
1996-01-22,-0.68, 4.56, -4.10, 2.91, 2.59, 11.14, repro,
1996-01-23,-0.89, 6.03, 1.71, 3.27, 2.94, 12.89, repro,
1996-01-24,-1.39, 4.20, -5.95, 3.37, 3.04, 13.14, repro,
1996-01-25,-0.81, 4.17, 3.00, 3.46, 2.84, 11.98, repro,
1996-01-26,-0.99, 3.22, -1.53, 2.96, 2.76, 13.21, repro,
1996-01-27,-2.26, 4.73, -14.94, 2.94, 2.59, 11.30, repro,
1996-01-28,-2.88, 5.53, -21.05, 3.06, 2.72, 11.15, repro,
1996-01-29,-2.46, 4.12, -7.01, 2.90, 2.67, 11.11, repro,
1996-01-30,-3.21, 5.85, -12.50, 3.28, 2.88, 13.23, repro,
1996-01-31,-2.88, 5.40, -17.46, 3.37, 3.14, 12.03, repro,
1996-02-01,-3.20, 6.28, -16.09, 3.21, 2.98, 13.08, repro,
1996-02-02,-3.27, 7.43, -12.16, 3.21, 2.88, 12.21, repro,
1996-02-03,-3.26, 6.41, -16.90, 2.95, 2.70, 11.99, repro,
1996-02-04,-3.39, 8.56, -24.15, 3.20, 2.86, 12.17, repro,
1996-02-05,-1.28, 6.55, -16.22, 3.05, 2.98, 12.03, repro,
1996-02-06,-3.70, 5.45, -11.99, 3.18, 2.91, 12.11, repro,
1996-02-07,-1.99, 3.32, -7.40, 2.80, 2.63, 11.53, repro,
1996-02-08,0.61, 3.46, -4.06, 2.98, 2.76, 11.46, repro,
1996-02-09,1.13, 3.06, -8.65, 2.94, 2.65, 11.70, repro,
1996-02-10,0.65, 2.93, 0.72, 2.76, 2.51, 11.79, repro,
1996-02-11,-0.42, 2.37, -15.50, 3.39, 2.75, 11.26, repro,
1996-02-12,-1.48, 3.38, -23.45, 3.03, 2.63, 11.93, repro,
1996-02-13,-1.76, 3.07, -18.05, 3.30, 2.77, 11.91, repro,
1996-02-14,0.57, 5.64, -7.13, 3.23, 2.73, 10.98, repro,
1996-02-15,0.32, 3.60, -12.05, 3.03, 2.65, 11.55, repro,
1996-02-16,-0.88, 4.08, -13.18, 3.55, 3.02, 12.41, repro,
1996-02-17,-2.15, 1.54, -13.63, 3.00, 2.65, 11.68, repro,
1996-02-18,-3.11, 2.58, -2.72, 3.22, 2.74, 11.66, repro,
1996-02-19,0.05, 3.59, 4.50, 3.07, 2.70, 12.16, repro,
1996-02-20,0.99, 1.73, -9.03, 3.48, 3.24, 14.22, repro,
1996-02-21,-0.45, 1.80, -13.82, 2.95, 2.68, 11.64, repro,
1996-02-22,-2.20, 1.81, -8.17, 2.80, 2.56, 11.22, repro,
1996-02-23,-0.35, 1.75, -2.54, 2.64, 2.34, 10.62, repro,
1996-02-24,-3.18, 3.72, -1.00, 2.73, 2.47, 10.45, repro,
1996-02-25,1.21, 3.78, -12.81, 2.70, 2.36, 10.33, repro,
1996-02-26,-0.29, 3.55, -7.31, 2.72, 2.41, 10.49, repro,
1996-02-27,-1.98, 2.04, -16.42, 3.20, 2.83, 12.93, repro,
1996-02-28,-2.81, 2.91, -13.98, 3.36, 2.86, 11.11, repro,
1996-02-29,-3.48, 4.28, -21.84, 3.11, 2.92, 12.24, repro,
1996-03-01,-2.50, 5.34, -9.48, 2.76, 2.57, 10.60, repro,
1996-03-02,-0.89, 1.10, -4.75, 2.92, 2.53, 11.33, repro,
1996-03-03,-1.86, 3.41, -14.97, 3.27, 2.78, 11.44, repro,
1996-03-04,-1.71, 0.49, -8.78, 3.10, 2.74, 11.72, repro,
1996-03-05,-0.18, 0.41, -13.51, 2.90, 2.56, 11.65, repro,
1996-03-06,-3.88, 3.24, -9.19, 3.08, 2.76, 12.23, repro,
1996-03-07,-1.42, 3.20, -25.40, 3.20, 2.87, 12.65, repro,
1996-03-08,-2.49, 2.45, -27.39, 3.05, 2.85, 11.17, repro,
1996-03-09,-2.83, 3.42, -21.79, 3.19, 2.77, 12.59, repro,
1996-03-10,-1.54, 3.33, -22.92, 3.13, 2.82, 12.77, repro,
1996-03-11,-2.42, 2.56, -28.51, 2.96, 2.56, 11.74, repro,
1996-03-12,0.50, 1.17, -9.09, 2.95, 2.55, 10.89, repro,
1996-03-13,0.58, -0.70, -9.21, 2.81, 2.53, 10.98, repro,
1996-03-14,-1.82, 0.30, -12.07, 2.63, 2.34, 10.53, repro,
1996-03-15,-2.30, 1.72, -3.95, 2.80, 2.58, 11.73, repro,
1996-03-16,-0.72, -1.51, -4.92, 2.67, 2.48, 10.96, repro,
1996-03-17,1.68, 0.84, -14.32, 2.56, 2.31, 10.36, repro,
1996-03-18,0.96, 1.45, -8.22, 2.38, 2.10, 9.66, repro,
1996-03-19,-0.27, 0.90, -13.12, 3.07, 2.73, 11.67, repro,
1996-03-20,-0.68, 2.33, -17.75, 2.98, 2.82, 11.91, repro,
1996-03-21,0.80, 2.46, -2.49, 2.93, 2.63, 11.23, repro,
1996-03-22,0.03, 2.03, -15.66, 3.09, 2.77, 12.44, repro,
1996-03-23,0.34, 0.64, -10.68, 2.61, 2.42, 10.69, repro,
1996-03-24,3.35, -0.23, -19.25, 2.88, 2.53, 11.07, repro,
1996-03-25,-0.45, 5.00, -8.52, 2.89, 2.58, 11.78, repro,
1996-03-26,-2.76, 2.25, -14.41, 2.72, 2.62, 11.54, repro,
1996-03-27,-1.51, 3.75, -19.32, 2.79, 2.49, 11.23, repro,
1996-03-28,-1.51, 2.25, -13.12, 2.91, 2.48, 10.71, repro,
1996-03-29,-1.16, 3.39, -9.90, 2.65, 2.30, 10.11, repro,
1996-03-30,-0.67, 1.67, 1.69, 2.57, 2.32, 10.26, repro,
1996-03-31,-1.47, 2.84, -16.55, 2.76, 2.45, 11.15, repro,
1996-04-01,-0.51, 0.77, -6.29, 2.65, 2.43, 10.71, repro,
1996-04-02,0.27, -0.04, -7.78, 2.57, 2.32, 10.47, repro,
1996-04-03,2.02, 1.12, -0.74, 2.49, 2.20, 10.20, repro,
1996-04-04,0.12, 1.91, 0.72, 2.60, 2.31, 10.49, repro,
1996-04-05,-0.84, 3.06, -11.34, 3.08, 2.57, 12.44, repro,
1996-04-06,0.34, 2.91, -16.14, 2.98, 2.55, 10.54, repro,
1996-04-07,0.86, 1.57, -3.90, 2.49, 2.23, 9.91, repro,
1996-04-08,-0.28, 2.60, -3.81, 2.77, 2.44, 10.84, repro,
1996-04-09,-0.20, 0.83, -5.43, 2.60, 2.32, 10.65, repro,
1996-04-10,0.14, 0.88, -1.34, 2.82, 2.51, 10.95, repro,
1996-04-11,0.69, -0.09, -10.77, 2.51, 2.17, 9.93, repro,
1996-04-12,-0.74, 0.92, -3.91, 3.49, 3.38, 15.39, repro,
1996-04-13,-0.27, 1.14, 0.63, 2.76, 2.24, 10.44, repro,
1996-04-14,-0.13, 1.29, 1.51, 2.62, 2.24, 10.47, repro,
1996-04-15,-0.18, 0.61, -12.90, 2.94, 2.53, 11.11, repro,
1996-04-16,1.73, 0.54, -5.92, 2.99, 2.55, 11.32, repro,
1996-04-17,1.52, -0.71, -1.51, 2.47, 2.12, 9.87, repro,
1996-04-18,2.18, -0.78, 2.66, 2.53, 2.14, 10.20, repro,
1996-04-19,0.71, 0.70, 5.72, 2.72, 2.23, 10.75, repro,
1996-04-20,1.24, -0.43, 4.96, 2.62, 2.25, 10.69, repro,
1996-04-21,-0.36, 2.52, -9.12, 3.12, 2.62, 13.03, repro,
1996-04-22,0.59, -0.21, -2.23, 2.77, 2.29, 10.85, repro,
1996-04-23,-0.20, 1.02, -9.99, 2.70, 2.42, 10.71, repro,
1996-04-24,-0.36, 0.28, -5.57, 2.57, 2.21, 10.00, repro,
1996-04-25,-1.72, -0.13, 2.08, 2.59, 2.17, 9.53, repro,
1996-04-26,1.13, 0.36, -1.67, 2.84, 2.36, 11.49, repro,
1996-04-27,1.08, 0.18, -3.14, 2.61, 2.22, 9.98, repro,
1996-04-28,2.18, -0.08, -14.12, 2.84, 2.44, 11.63, repro,
1996-04-29,0.67, 1.20, -6.79, 2.67, 2.46, 11.25, repro,
1996-04-30,-0.28, 2.13, -10.29, 2.99, 2.70, 12.13, repro,
1996-05-01,0.22, 0.69, -6.80, 2.64, 2.29, 10.44, repro,
1996-05-02,2.10, 2.13, -7.08, 2.70, 2.34, 11.03, repro,
1996-05-03,2.04, 2.23, -11.73, 2.60, 2.19, 10.18, repro,
1996-05-04,4.44, -1.13, -2.23, 3.00, 2.74, 12.78, repro,
1996-05-05,2.45, -1.11, -11.40, 2.55, 2.24, 10.20, repro,
1996-05-06,1.56, -2.32, -13.61, 2.86, 2.44, 10.58, repro,
1996-05-07,0.23, 0.92, -11.79, 2.62, 2.19, 9.77, repro,
1996-05-08,5.88, 1.71, -1.95, 2.72, 2.36, 10.30, repro,
1996-05-09,4.13, 0.08, -5.82, 2.54, 2.20, 10.24, repro,
1996-05-10,3.15, 0.22, -4.70, 2.97, 2.52, 11.69, repro,
1996-05-11,2.30, 2.61, -19.37, 2.98, 2.54, 12.02, repro,
1996-05-12,2.06, 3.32, -9.66, 2.70, 2.48, 11.23, repro,
1996-05-13,2.63, 2.34, -12.60, 2.66, 2.32, 10.89, repro,
1996-05-14,1.36, -0.48, -4.79, 2.50, 2.20, 9.95, repro,
1996-05-15,3.05, 3.28, -7.70, 2.50, 2.22, 9.86, repro,
1996-05-16,1.45, 3.18, 1.92, 2.82, 2.41, 11.08, repro,
1996-05-17,3.77, 0.56, 8.02, 2.70, 2.22, 10.34, repro,
1996-05-18,4.44, -0.78, 4.34, 2.63, 2.32, 10.89, repro,
1996-05-19,3.28, 1.79, 2.43, 2.71, 2.32, 11.08, repro,
1996-05-20,2.69, -0.31, 5.98, 2.56, 2.22, 9.78, repro,
1996-05-21,2.39, -0.26, -3.74, 2.64, 2.39, 10.66, repro,
1996-05-22,2.62, -0.15, -7.86, 2.54, 2.28, 9.79, repro,
1996-05-23,3.07, -2.61, 2.29, 2.69, 2.33, 10.84, repro,
1996-05-24,2.80, 0.15, -8.56, 3.53, 3.26, 15.26, repro,
1996-05-25,-0.66, 3.82, -18.06, 3.31, 2.87, 13.12, repro,
1996-05-26,1.58, 1.34, -18.03, 3.01, 2.58, 11.21, repro,
1996-05-27,0.82, 2.91, 6.82, 2.88, 2.48, 11.12, repro,
1996-05-28,1.88, 1.89, -5.18, 2.69, 2.45, 11.11, repro,
1996-05-29,-0.41, 1.77, 3.63, 2.69, 2.48, 11.61, repro,
1996-05-30,0.04, 1.07, -11.60, 2.60, 2.33, 10.58, repro,
1996-05-31,0.88, 0.63, -18.31, 2.23, 1.91, 8.56, repro,
1996-06-01,1.92, 0.20, -12.23, 2.19, 1.89, 8.62, repro,
1996-06-02,0.71, 1.53, -13.12, 2.19, 1.90, 8.57, repro,
1996-06-03,1.80, 1.04, -16.53, 2.21, 1.94, 8.60, repro,
1996-06-04,0.07, 1.09, -8.18, 2.15, 1.84, 8.36, repro,
1996-06-05,0.21, 1.18, -9.81, 2.63, 2.27, 10.60, repro,
1996-06-06,2.49, -1.24, -13.23, 2.31, 2.05, 9.32, repro,
1996-06-07,0.75, 1.14, -10.07, 2.36, 1.95, 8.80, repro,
1996-06-08,0.75, 1.76, -6.82, 2.28, 1.91, 8.56, repro,
1996-06-09,2.15, 2.45, -7.87, 2.26, 1.90, 8.50, repro,
1996-06-10,1.62, 0.74, -11.29, 2.36, 2.04, 8.89, repro,
1996-06-11,1.46, -0.03, 2.28, 2.37, 2.08, 9.15, repro,
1996-06-12,1.97, -1.04, -3.93, 2.37, 2.00, 8.99, repro,
1996-06-13,1.23, -0.17, -19.34, 2.48, 2.08, 9.26, repro,
1996-06-14,0.14, 0.34, -12.10, 2.32, 1.98, 8.82, repro,
1996-06-15,1.58, 3.45, -2.72, 2.39, 2.06, 9.19, repro,
1996-06-16,1.38, 0.51, -9.19, 2.30, 1.95, 8.71, repro,
1996-06-17,0.58, -2.26, -2.83, 2.38, 2.11, 9.30, repro,
1996-06-18,-0.08, -1.27, -2.87, 2.30, 1.96, 8.79, repro,
1996-06-19,0.36, -1.32, -7.16, 2.34, 2.04, 9.07, repro,
1996-06-20,1.01, 1.09, -1.95, 2.43, 2.05, 9.15, repro,
1996-06-21,0.99, 0.53, 1.24, 2.47, 2.08, 9.34, repro,
1996-06-22,2.06, 0.90, -3.16, 2.32, 2.03, 8.88, repro,
1996-06-23,1.26, 0.27, 2.12, 2.21, 1.93, 8.67, repro,
1996-06-24,-0.19, 1.46, 6.58, 2.48, 2.03, 9.22, repro,
1996-06-25,-0.62, -1.07, 15.72, 2.44, 2.04, 9.27, repro,
1996-06-26,1.03, 2.38, 7.47, 2.65, 2.21, 9.69, repro,
1996-06-27,4.94, 5.30, 11.13, 6.39, 4.54, 21.03, repro,
1996-06-28,2.60, 0.34, -7.08, 2.47, 2.04, 9.23, repro,
1996-06-29,2.39, 1.62, -4.11, 2.41, 2.03, 9.28, repro,
1996-06-30,2.03, -0.63, -1.29, 2.47, 2.05, 9.50, repro,
1996-07-01,0.77, -0.95, -10.58, 2.38, 1.99, 8.91, repro,
1996-07-02,0.78, -0.94, 13.91, 2.54, 2.08, 9.71, repro,
1996-07-03,1.74, -1.07, -6.76, 2.43, 2.03, 9.57, repro,
1996-07-04,1.39, 0.84, 2.39, 2.49, 2.07, 9.39, repro,
1996-07-05,1.72, 0.36, -0.50, 2.32, 2.00, 8.90, repro,
1996-07-06,6.00, 0.48, 0.59, 3.90, 2.99, 13.80, repro,
1996-07-08,1.27, -1.72, -17.55, 8.79, 10.92, 39.06, repro,
1996-07-09,-0.07, -0.35, -0.11, 2.30, 2.03, 8.91, repro,
1996-07-10,-0.67, 1.58, -1.56, 2.25, 1.90, 8.76, repro,
1996-07-11,-1.12, 0.92, -10.11, 2.18, 1.87, 8.47, repro,
1996-07-12,-1.20, 0.69, -6.71, 2.18, 1.87, 8.60, repro,
1996-07-13,0.94, -0.93, -2.32, 2.18, 1.88, 8.51, repro,
1996-07-14,-0.20, -0.94, 2.27, 2.44, 2.04, 9.14, repro,
1996-07-15,0.06, -1.15, -11.38, 2.31, 1.97, 8.89, repro,
1996-07-16,1.45, 0.33, -0.17, 2.23, 1.91, 8.61, repro,
1996-07-17,0.70, -0.55, -7.53, 2.25, 1.91, 8.84, repro,
1996-07-18,1.31, -1.40, -3.96, 2.18, 1.89, 8.53, repro,
1996-07-19,1.16, -2.62, 1.72, 2.19, 1.91, 8.58, repro,
1996-07-20,1.36, -3.76, -2.99, 2.22, 1.97, 8.85, repro,
1996-07-21,2.61, -2.08, -2.88, 2.18, 1.93, 8.62, repro,
1996-07-22,0.04, 0.41, -0.38, 2.23, 1.92, 8.74, repro,
1996-07-23,-0.62, 1.27, -5.63, 2.84, 2.53, 10.91, repro,
1996-07-24,4.57, 0.59, -10.56, 2.37, 2.01, 9.20, repro,
1996-07-25,-0.28, -1.90, -6.02, 2.21, 1.89, 8.58, repro,
1996-07-26,0.97, 2.86, -6.28, 2.34, 2.02, 9.34, repro,
1996-07-27,1.77, 1.60, -9.19, 2.19, 1.90, 8.54, repro,
1996-07-28,2.70, 0.28, -12.17, 2.21, 1.90, 8.58, repro,
1996-07-29,0.35, 1.23, -16.24, 2.62, 2.38, 10.88, repro,
1996-07-30,3.08, -1.32, 4.29, 2.23, 1.90, 8.62, repro,
1996-07-31,0.54, -0.38, -5.41, 2.19, 1.90, 8.56, repro,
1996-08-01,0.52, -2.20, -12.64, 2.17, 1.89, 8.51, repro,
1996-08-02,0.71, 1.31, -9.15, 2.28, 1.97, 8.68, repro,
1996-08-03,3.39, -1.64, -0.53, 2.50, 2.08, 10.07, repro,
1996-08-04,2.60, 1.98, 3.79, 2.26, 1.90, 8.54, repro,
1996-08-05,2.81, 0.38, 4.96, 2.31, 2.03, 8.91, repro,
1996-08-06,0.35, 0.05, -0.01, 2.40, 2.06, 9.23, repro,
1996-08-07,-0.31, -0.97, 0.14, 2.32, 1.98, 9.04, repro,
1996-08-08,4.28, -1.14, -10.14, 2.31, 1.96, 8.97, repro,
1996-08-09,3.40, -0.10, -22.71, 2.27, 1.96, 8.73, repro,
1996-08-10,-1.21, -0.39, -5.33, 2.22, 1.91, 8.54, repro,
1996-08-11,-0.85, 0.77, -0.32, 2.30, 1.97, 8.66, repro,
1996-08-12,0.02, 0.47, -11.26, 2.35, 2.02, 8.79, repro,
1996-08-13,-0.46, -1.00, -13.57, 2.55, 2.21, 9.59, repro,
1996-08-14,1.15, -0.35, -16.44, 2.38, 2.05, 8.97, repro,
1996-08-15,2.18, -1.63, 2.51, 2.34, 2.05, 8.85, repro,
1996-08-16,1.62, -1.55, -5.74, 2.48, 2.34, 9.70, repro,
1996-08-17,1.04, -0.20, 2.12, 2.41, 2.16, 9.02, repro,
1996-08-19,3.13, -1.35, -5.57, 2.63, 2.28, 9.66, repro,
1996-08-20,-0.72, 3.92, 4.08, 2.50, 2.23, 9.29, repro,
1996-08-21,-1.23, 2.73, 11.20, 2.51, 2.24, 9.53, repro,
1996-08-22,-0.03, 0.33, -5.66, 2.44, 2.24, 9.34, repro,
1996-08-23,3.15, -1.18, -11.04, 2.39, 2.11, 9.01, repro,
1996-08-24,3.43, 0.19, -7.82, 2.49, 2.20, 9.45, repro,
1996-08-25,2.61, -0.18, -12.13, 2.38, 2.09, 8.92, repro,
1996-08-26,2.32, -2.06, -10.27, 2.38, 2.12, 9.12, repro,
1996-08-27,1.52, -0.05, -11.12, 2.50, 2.21, 9.41, repro,
1996-08-28,1.97, -2.52, -7.59, 2.31, 2.15, 8.90, repro,
1996-08-29,4.11, 0.61, -12.23, 2.54, 2.23, 10.00, repro,
1996-08-30,1.53, 1.23, -13.74, 2.50, 2.11, 9.93, repro,
1996-08-31,0.42, 0.68, 2.66, 2.27, 2.00, 8.77, repro,
1996-09-01,0.09, 2.56, -6.55, 2.40, 2.20, 9.19, repro,
1996-09-02,0.99, 0.37, -9.17, 2.83, 2.45, 10.55, repro,
1996-09-03,-0.05, 2.17, 0.79, 2.50, 2.29, 9.38, repro,
1996-09-04,1.48, 0.51, 0.58, 2.59, 2.35, 9.76, repro,
1996-09-05,1.72, -0.98, -6.74, 2.27, 2.00, 8.73, repro,
1996-09-06,3.33, 3.20, -1.27, 2.49, 2.19, 9.22, repro,
1996-09-07,2.68, 0.21, -3.08, 2.53, 2.23, 9.71, repro,
1996-09-08,-0.74, -0.41, -6.24, 2.52, 2.26, 9.65, repro,
1996-09-09,0.21, -1.08, -9.55, 2.52, 2.26, 9.75, repro,
1996-09-10,0.71, -2.12, -7.87, 2.68, 2.43, 10.23, repro,
1996-09-11,2.91, -0.69, -5.15, 2.74, 2.39, 10.49, repro,
1996-09-12,2.70, -0.43, -2.06, 2.69, 2.37, 10.40, repro,
1996-09-13,0.22, 0.03, 1.14, 2.33, 2.03, 9.07, repro,
1996-09-14,0.59, 1.32, -0.96, 2.51, 2.14, 9.68, repro,
1996-09-15,0.87, 0.41, -2.92, 2.32, 2.12, 8.99, repro,
1996-09-16,-0.39, 1.05, 2.84, 2.74, 2.44, 10.58, repro,
1996-09-17,0.68, 0.63, -8.44, 2.56, 2.22, 9.89, repro,
1996-09-18,-0.82, 1.05, -1.57, 2.29, 2.04, 8.80, repro,
1996-09-19,0.91, 3.30, -28.31, 2.46, 2.21, 9.50, repro,
1996-09-20,-0.63, 1.81, -8.41, 2.47, 2.20, 9.37, repro,
1996-09-21,-1.06, 3.22, -8.56, 2.56, 2.26, 9.63, repro,
1996-09-22,-4.31, 2.41, -2.22, 4.71, 4.49, 20.46, repro,
1996-09-23,1.06, -1.04, 5.22, 2.55, 2.14, 10.18, repro,
1996-09-24,0.86, 0.41, -10.53, 2.29, 1.96, 8.76, repro,
1996-09-25,0.41, 0.23, -12.91, 2.17, 1.87, 8.43, repro,
1996-09-26,-1.12, 3.32, -3.51, 2.75, 2.37, 10.75, repro,
1996-09-27,-1.26, 3.31, -2.97, 2.24, 1.94, 8.80, repro,
1996-09-28,-1.61, 1.94, -8.50, 2.15, 1.87, 8.28, repro,
1996-09-29,-1.39, 1.53, -9.69, 2.14, 1.85, 8.31, repro,
1996-09-30,-0.23, 1.08, -8.49, 2.20, 1.89, 8.63, repro,
1996-10-01,-0.60, 2.11, -4.65, 2.32, 1.98, 9.12, repro,
1996-10-02,-0.50, 1.89, -10.46, 2.09, 1.80, 8.14, repro,
1996-10-03,-1.72, 2.51, -7.91, 2.14, 1.82, 8.33, repro,
1996-10-04,-0.31, 2.14, -13.69, 2.18, 1.84, 8.46, repro,
1996-10-05,-0.33, 2.52, -16.47, 2.23, 1.85, 8.71, repro,
1996-10-06,-1.99, 1.50, -12.00, 2.13, 1.80, 8.29, repro,
1996-10-07,0.17, 0.25, -11.79, 2.14, 1.88, 8.48, repro,
1996-10-08,-1.13, 1.63, -3.70, 2.16, 1.88, 8.38, repro,
1996-10-09,-0.56, -0.06, -9.38, 2.23, 1.91, 8.58, repro,
1996-10-10,-1.03, 1.77, -9.13, 2.13, 1.83, 8.24, repro,
1996-10-11,-0.32, 1.60, -6.08, 2.07, 1.77, 8.00, repro,
1996-10-12,0.17, 1.09, -10.51, 2.09, 1.79, 8.02, repro,
1996-10-13,0.14, 0.40, -3.50, 2.17, 1.89, 8.44, repro,
1996-10-14,0.24, 0.59, 1.06, 2.12, 1.80, 8.27, repro,
1996-10-15,0.23, -0.00, 0.50, 2.20, 1.85, 8.51, repro,
1996-10-16,-0.40, 0.45, 2.54, 2.21, 1.84, 8.48, repro,
1996-10-17,-1.05, -0.00, -3.53, 2.16, 1.81, 8.49, repro,
1996-10-18,-1.13, 1.95, -6.46, 2.20, 1.83, 8.51, repro,
1996-10-19,-0.33, 2.79, -0.98, 2.14, 1.81, 8.30, repro,
1996-10-20,1.21, 1.58, 4.73, 2.17, 1.84, 8.46, repro,
1996-10-21,-1.52, 2.40, -4.08, 2.14, 1.83, 8.33, repro,
1996-10-22,-4.02, 1.55, -6.35, 2.11, 1.78, 8.08, repro,
1996-10-23,-2.59, 2.03, -2.81, 2.26, 1.92, 8.77, repro,
1996-10-24,-1.13, 1.87, -2.14, 2.20, 1.85, 8.53, repro,
1996-10-25,-0.03, 2.15, 8.43, 2.16, 1.82, 8.34, repro,
1996-10-26,-1.66, 2.05, 10.68, 2.42, 1.98, 9.51, repro,
1996-10-27,-0.68, 2.38, -2.15, 2.32, 1.92, 8.84, repro,
1996-10-28,-1.27, 1.17, -19.72, 2.13, 1.78, 8.14, repro,
1996-10-29,-1.01, 3.32, -2.83, 2.24, 1.85, 8.58, repro,
1996-10-30,-2.58, 2.45, -9.20, 2.20, 1.89, 8.40, repro,
1996-10-31,-0.63, 3.73, -12.49, 2.23, 1.87, 8.55, repro,
1996-11-01,-1.12, 3.41, -6.16, 2.24, 1.83, 8.73, repro,
1996-11-02,-0.72, 3.62, -10.76, 2.45, 2.07, 9.39, repro,
1996-11-03,-1.35, 4.37, -10.34, 2.27, 1.87, 8.76, repro,
1996-11-04,1.20, 4.04, -1.29, 2.35, 2.01, 9.43, repro,
1996-11-05,-0.89, 2.99, -4.70, 2.36, 1.99, 9.16, repro,
1996-11-06,-1.75, 3.09, -0.13, 2.44, 2.05, 9.62, repro,
1996-11-07,-2.31, 2.04, -9.23, 2.38, 1.97, 9.05, repro,
1996-11-08,-3.83, 2.47, -14.58, 2.38, 2.03, 9.43, repro,
1996-11-09,0.10, 3.07, -8.06, 2.61, 2.22, 10.49, repro,
1996-11-10,-0.96, 2.33, -6.15, 2.53, 2.16, 9.99, repro,
1996-11-11,-1.12, 4.41, -10.61, 2.48, 2.14, 10.00, repro,
1996-11-12,-0.90, 3.94, -31.15, 4.28, 3.96, 17.37, repro,
1996-11-13,-3.40, 4.56, -12.07, 2.29, 1.90, 9.03, repro,
1996-11-14,-3.04, 5.00, -10.52, 2.21, 1.89, 8.69, repro,
1996-11-15,-1.83, 3.31, -9.20, 2.27, 1.86, 8.89, repro,
1996-11-16,-2.90, -0.60, -6.89, 2.36, 2.01, 9.22, repro,
1996-11-17,-2.69, 2.89, -12.38, 2.57, 2.23, 9.96, repro,
1996-11-18,-3.15, 2.14, -11.16, 2.58, 2.25, 9.87, repro,
1996-11-19,-4.53, 3.16, -14.87, 2.76, 2.43, 10.78, repro,
1996-11-20,-1.82, 1.63, 1.37, 2.28, 1.94, 9.08, repro,
1996-11-21,-2.97, 1.81, -8.29, 2.33, 2.00, 9.25, repro,
1996-11-22,-3.42, 3.21, -7.57, 2.36, 1.98, 9.25, repro,
1996-11-23,-0.99, 2.22, -4.48, 2.39, 2.02, 9.38, repro,
1996-11-24,-2.09, 3.91, -19.56, 4.39, 4.17, 17.33, repro,
1996-11-25,-2.65, 3.76, -10.95, 2.40, 1.99, 9.15, repro,
1996-11-26,-1.69, 2.25, -22.87, 2.35, 1.94, 9.01, repro,
1996-11-27,-1.01, 4.86, -25.12, 2.38, 1.97, 9.07, repro,
1996-11-30,-13.99, 1.72, -69.43, 5.11, 4.85, 20.27, repro,
1996-12-01,-9.13, 3.58, -9.19, 2.99, 2.41, 11.39, repro,
1996-12-02,-2.47, 3.91, -9.12, 2.79, 2.44, 10.72, repro,
1996-12-03,-2.91, 4.49, -9.48, 2.28, 1.96, 8.87, repro,
1996-12-04,-0.85, 4.25, -17.98, 2.50, 2.10, 9.38, repro,
1996-12-05,-0.26, 7.04, -4.74, 2.68, 2.19, 9.93, repro,
1996-12-06,-0.50, 3.19, -3.91, 2.70, 2.30, 10.24, repro,
1996-12-07,-2.00, 1.11, -15.29, 2.40, 2.01, 9.17, repro,
1996-12-08,0.91, 3.25, -8.89, 2.59, 2.18, 9.66, repro,
1996-12-09,-1.90, 1.84, -10.98, 2.55, 2.20, 9.96, repro,
1996-12-10,-0.70, 1.93, -13.08, 2.69, 2.14, 9.86, repro,
1996-12-11,0.27, 3.29, -7.89, 2.39, 2.05, 9.14, repro,
1996-12-12,-2.40, 2.74, -8.34, 2.36, 2.00, 8.81, repro,
1996-12-13,-2.76, 2.54, -12.45, 2.30, 1.96, 8.76, repro,
1996-12-14,-3.46, 1.23, -14.42, 2.22, 1.85, 8.54, repro,
1996-12-15,-2.69, 3.19, -16.63, 2.45, 1.99, 9.15, repro,
1996-12-16,-2.65, 3.15, -14.87, 2.19, 1.81, 8.40, repro,
1996-12-17,-4.38, 2.28, -15.57, 2.39, 2.02, 9.11, repro,
1996-12-18,-4.59, 4.94, -22.08, 2.21, 1.82, 8.35, repro,
1996-12-19,-3.83, 4.81, -15.96, 2.64, 2.16, 9.55, repro,
1996-12-20,-4.05, 4.22, -15.96, 2.32, 1.93, 8.68, repro,
1996-12-21,-2.16, 4.88, -8.97, 2.31, 1.93, 8.60, repro,
1996-12-22,-1.03, 5.07, -14.49, 2.44, 2.06, 9.06, repro,
1996-12-23,-4.03, 4.18, -14.74, 2.27, 1.88, 8.56, repro,
1996-12-24,-4.32, 3.08, -19.58, 2.30, 1.89, 8.48, repro,
1996-12-25,-3.85, 4.14, -15.58, 2.37, 2.00, 8.96, repro,
1996-12-26,-2.64, 3.95, -17.91, 2.30, 1.91, 8.73, repro,
1996-12-27,-2.71, 3.28, -13.13, 2.31, 1.92, 8.84, repro,
1996-12-28,-2.95, 2.49, -12.60, 2.40, 1.95, 8.92, repro,
1996-12-29,-3.63, 3.43, -10.19, 2.35, 1.95, 8.76, repro,
1996-12-30,-1.03, 4.02, -8.78, 2.44, 2.03, 9.39, repro,
1996-12-31,-2.26, 1.90, -15.91, 2.37, 1.98, 9.11, repro,
1997-01-01,-2.41, 1.74, -15.96, 2.27, 1.90, 8.79, repro,
1997-01-02,-0.89, 1.23, -7.70, 2.51, 2.15, 9.65, repro,
1997-01-03,-0.94, 1.64, -0.21, 2.43, 2.11, 9.48, repro,
1997-01-04,-2.55, 0.91, -7.73, 2.46, 2.12, 9.48, repro,
1997-01-05,-1.81, 1.84, -13.41, 2.40, 2.01, 9.53, repro,
1997-01-06,-2.63, 3.32, -29.42, 2.46, 2.06, 9.39, repro,
1997-01-07,-3.25, 3.62, -20.82, 2.41, 2.04, 9.12, repro,
1997-01-08,-5.33, 3.10, -16.17, 2.30, 1.92, 9.01, repro,
1997-01-09,-4.15, 1.99, -11.57, 2.58, 2.02, 9.67, repro,
1997-01-10,-3.45, 4.47, -10.55, 2.20, 1.84, 8.52, repro,
1997-01-11,-4.11, 5.34, -17.17, 2.34, 1.95, 9.04, repro,
1997-01-12,-4.33, 6.92, -23.67, 2.60, 2.06, 9.58, repro,
1997-01-13,-3.53, 7.47, -27.87, 2.35, 2.08, 9.33, repro,
1997-01-14,-2.67, 6.65, -20.43, 2.74, 2.40, 10.77, repro,
1997-01-15,-3.27, 4.32, -12.25, 2.35, 1.96, 8.99, repro,
1997-01-16,-3.89, 3.63, -22.63, 2.52, 2.04, 9.71, repro,
1997-01-17,-6.13, 4.80, -28.36, 2.84, 2.39, 10.64, repro,
1997-01-18,-2.99, 4.00, -25.42, 2.63, 2.22, 10.33, repro,
1997-01-19,-2.72, 3.50, -22.11, 2.40, 2.03, 9.57, repro,
1997-01-20,-1.78, 4.47, -18.07, 2.25, 1.94, 8.84, repro,
1997-01-21,-1.97, 0.77, -9.83, 2.39, 2.01, 9.19, repro,
1997-01-22,-4.46, 1.70, -13.77, 2.43, 2.05, 9.23, repro,
1997-01-23,-0.82, 1.54, -29.13, 2.46, 1.97, 9.24, repro,
1997-01-24,-3.19, 1.32, -11.38, 2.72, 2.30, 10.26, repro,
1997-01-25,-1.99, 3.20, -18.43, 2.66, 2.28, 10.56, repro,
1997-01-26,-4.17, 3.47, -14.17, 2.40, 1.92, 9.11, repro,
1997-01-27,-4.55, 5.35, -12.01, 2.91, 2.34, 11.12, repro,
1997-01-28,-5.24, 4.64, -24.46, 2.32, 1.93, 9.14, repro,
1997-01-29,-3.03, 5.41, -26.30, 2.25, 1.89, 8.77, repro,
1997-01-30,-2.38, 3.64, -18.35, 2.18, 1.82, 8.40, repro,
1997-01-31,-1.80, 2.45, -10.14, 2.19, 1.82, 8.46, repro,
1997-02-01,-3.20, 2.66, -7.87, 2.20, 1.81, 8.43, repro,
1997-02-24,-2.96, 3.45, -30.23, 2.39, 1.98, 9.29, repro,
1997-02-25,-3.10, 4.11, -23.02, 2.30, 1.87, 9.04, repro,
1997-02-26,-3.91, 1.07, -7.17, 2.35, 1.94, 9.11, repro,
1997-02-27,-4.13, 2.84, -7.58, 2.47, 2.00, 9.55, repro,
1997-02-28,-2.28, 1.11, -15.59, 2.45, 2.02, 9.51, repro,
1997-03-01,-1.36, 3.04, -8.42, 2.31, 1.91, 8.74, repro,
1997-03-02,-1.22, 3.78, -15.84, 2.47, 1.96, 9.53, repro,
1997-03-03,-2.07, 1.71, -8.44, 2.27, 1.94, 8.75, repro,
1997-03-04,-2.93, 2.44, -19.24, 2.51, 2.08, 9.84, repro,
1997-03-05,-2.45, 2.71, -22.31, 2.28, 1.85, 9.02, repro,
1997-03-06,-1.85, 3.04, -23.12, 2.35, 2.00, 9.18, repro,
1997-03-07,-1.15, 3.02, -12.76, 2.23, 1.89, 8.65, repro,
1997-03-08,-0.35, 0.89, -18.17, 2.45, 1.95, 9.42, repro,
1997-03-09,-1.86, 3.19, -7.56, 2.46, 1.97, 9.49, repro,
1997-03-10,-1.29, 2.40, -14.38, 2.39, 1.98, 9.32, repro,
1997-03-11,-0.69, 1.05, -19.31, 2.48, 2.02, 9.76, repro,
1997-03-12,-1.59, 2.23, -18.05, 2.27, 1.87, 8.84, repro,
1997-03-13,-2.97, 2.85, -11.53, 2.36, 1.95, 9.01, repro,
1997-03-14,-3.08, 2.83, -25.36, 2.47, 2.07, 9.59, repro,
1997-03-15,-3.10, 3.61, -17.30, 2.39, 2.01, 9.14, repro,
1997-03-16,-3.11, 3.06, -18.67, 2.17, 1.77, 8.39, repro,
1997-03-17,-1.86, 2.80, -18.51, 2.23, 1.83, 8.54, repro,